GW7336 Weather Reports


time (UTC)temp
C
wind
direction
speed
KPH
gust
KPH
rain 1hr
cm
rain 24hr
cm
rain mn
cm
humidity
%
barometer
mb
20260504184004 20 311 0.0 16.1 0.00 0.00 0.00 36 1006.0
20260504183512 20 330 1.6 14.5 0.00 0.00 0.00 35 1006.0
20260504183026 19 338 0.0 22.5 0.00 0.00 0.00 35 1006.1
20260504182504 20 288 0.0 22.5 0.00 0.00 0.00 34 1006.0
20260504182008 20 5 0.0 17.7 0.00 0.00 0.00 34 1006.1
20260504181521 19 306 1.6 17.7 0.00 0.00 0.00 34 1006.0
20260504181007 19 351 0.0 17.7 0.00 0.00 0.00 35 1006.1
20260504180502 19 276 1.6 14.5 0.00 0.00 0.00 33 1006.1
20260504180021 20 53 0.0 0.0 0.00 0.00 0.00 35 1006.1
20260504175506 19 273 0.0 0.0 0.00 0.00 0.00 36 1006.1
20260504175007 19 170 0.0 0.0 0.00 0.00 0.00 35 1006.4
20260504174518 19 333 0.0 8.0 0.00 0.00 0.00 38 1006.3
20260504174008 19 298 0.0 16.1 0.00 0.00 0.00 33 1006.5
20260504173508 18 140 0.0 16.1 0.00 0.00 0.00 36 1006.4
20260504173013 18 279 0.0 1.6 0.00 0.00 0.00 36 1006.4
20260504172505 18 46 0.0 19.3 0.00 0.00 0.00 34 1006.5
20260504172008 18 123 0.0 22.5 0.00 0.00 0.00 36 1006.5
20260504171526 18 46 4.8 22.5 0.00 0.00 0.00 35 1006.5
20260504171006 18 150 0.0 16.1 0.00 0.00 0.00 35 1006.6
20260504170512 18 181 0.0 19.3 0.00 0.00 0.00 38 1006.5
20260504151005 16 305 0.0 16.1 0.00 0.00 0.00 40 1007.3
20260504150509 16 241 1.6 17.7 0.00 0.00 0.00 40 1007.1
20260504141002 15 162 0.0 20.9 0.00 0.00 0.00 45 1008.2
20260504140503 14 66 0.0 20.9 0.00 0.00 0.00 46 1008.1
20260504130508 11 187 0.0 14.5 0.00 0.00 0.00 54 1008.6
20260504110504 5 86 0.0 0.0 0.00 0.00 0.00 68 1009.0
20260504100504 5 153 0.0 1.6 0.00 0.00 0.00 68 1008.7
20260504082006 4 94 0.0 0.0 0.00 0.00 0.00 68 1008.7
20260504081530 4 355 0.0 0.0 0.00 0.00 0.00 63 1008.8
20260504081003 3 87 0.0 0.0 0.00 0.00 0.00 59 1008.8
20260504080503 3 89 0.0 0.0 0.00 0.00 0.00 59 1008.9
20260504050506 2 22 0.0 0.0 0.00 0.00 0.00 69 1009.0
20260504050025 2 22 0.0 0.0 0.00 0.00 0.00 67 1009.0
20260504045503 2 22 0.0 0.0 0.00 0.00 0.00 66 1009.0
20260504045005 2 22 0.0 0.0 0.00 0.00 0.00 68 1009.0
20260504044524 2 22 0.0 0.0 0.00 0.00 0.00 67 1009.1
20260504044009 2 22 0.0 0.0 0.00 0.00 0.00 67 1009.2
20260504043505 2 22 0.0 0.0 0.00 0.00 0.00 66 1009.1
20260504043020 1 22 0.0 0.0 0.00 0.00 0.00 65 1009.1
20260504042507 1 22 0.0 0.0 0.00 0.00 0.00 67 1009.0
20260504042004 1 22 0.0 0.0 0.00 0.00 0.00 66 1009.1
20260504041534 1 22 0.0 0.0 0.00 0.00 0.00 67 1009.0
20260504041005 1 22 0.0 0.0 0.00 0.00 0.00 68 1009.0
20260504040502 1 22 0.0 0.0 0.00 0.00 0.00 68 1008.8
20260504040019 1 22 0.0 0.0 0.00 0.00 0.00 68 1008.9
20260504035506 1 22 0.0 0.0 0.00 0.00 0.00 68 1009.0
20260504035006 1 22 0.0 0.0 0.00 0.00 0.00 68 1009.0
20260504034510 1 22 0.0 0.0 0.00 0.00 0.00 68 1009.0
20260504034003 2 22 0.0 0.0 0.00 0.00 0.00 68 1008.9
20260504033506 2 22 0.0 0.0 0.00 0.00 0.00 68 1008.8
20260504033026 1 22 0.0 0.0 0.00 0.00 0.00 69 1008.9
20260504032505 1 22 0.0 0.0 0.00 0.00 0.00 68 1009.0
20260504032006 2 22 0.0 0.0 0.00 0.00 0.00 68 1008.9
20260504031524 1 22 0.0 0.0 0.00 0.00 0.00 69 1008.8
20260504031004 2 22 0.0 0.0 0.00 0.00 0.00 69 1008.9
20260504030503 2 22 0.0 0.0 0.00 0.00 0.00 69 1008.8
20260504030022 2 22 0.0 0.0 0.00 0.00 0.00 69 1008.8
20260504025507 2 22 0.0 0.0 0.00 0.00 0.00 69 1008.9
20260504025005 2 22 0.0 0.0 0.00 0.00 0.00 69 1008.8
20260504024519 2 22 0.0 0.0 0.00 0.00 0.00 69 1008.7
20260504024005 2 22 0.0 0.0 0.00 0.00 0.00 69 1008.7
20260504023507 2 22 0.0 0.0 0.00 0.00 0.00 69 1008.8
20260504023015 2 22 0.0 0.0 0.00 0.00 0.00 69 1008.8
20260504022507 2 22 0.0 0.0 0.00 0.00 0.00 69 1009.0
20260504022009 2 22 0.0 0.0 0.00 0.00 0.00 69 1008.9
20260504021510 2 22 0.0 0.0 0.00 0.00 0.00 69 1008.9
20260504021005 2 22 0.0 0.0 0.00 0.00 0.00 69 1008.8
20260504020506 2 22 0.0 0.0 0.00 0.00 0.00 69 1008.8
20260504020035 2 22 0.0 0.0 0.00 0.00 0.00 69 1008.8
20260504015506 2 22 0.0 0.0 0.00 0.00 0.00 69 1008.7
20260504015007 2 22 0.0 0.0 0.00 0.00 0.00 69 1008.6
20260504014526 2 22 0.0 0.0 0.00 0.00 0.00 68 1008.6
20260504014006 2 124 0.0 0.0 0.00 0.00 0.00 68 1008.6
20260504013511 3 124 0.0 0.0 0.00 0.00 0.00 68 1008.6
20260504013031 3 126 0.0 0.0 0.00 0.00 0.00 68 1008.5
20260504012510 3 126 0.0 0.0 0.00 0.00 0.00 68 1008.5
20260504012004 3 126 0.0 0.0 0.00 0.00 0.00 68 1008.5
20260504011520 3 126 0.0 0.0 0.00 0.00 0.00 68 1008.4
20260504011006 3 126 0.0 0.0 0.00 0.00 0.00 68 1008.3
20260504010512 3 126 0.0 0.0 0.00 0.00 0.00 67 1008.2
20260504010015 3 126 0.0 0.0 0.00 0.00 0.00 67 1008.2
20260504005507 3 126 0.0 0.0 0.00 0.00 0.00 66 1008.0
20260504005008 3 126 0.0 0.0 0.00 0.00 0.00 66 1008.0
20260504004515 4 126 0.0 0.0 0.00 0.00 0.00 66 1007.9
20260504004007 4 126 0.0 0.0 0.00 0.00 0.00 65 1007.8
20260504003510 5 126 0.0 0.0 0.00 0.00 0.00 64 1007.9
20260504003028 5 126 0.0 0.0 0.00 0.00 0.00 62 1007.9
20260504002505 5 126 0.0 0.0 0.00 0.00 0.00 62 1007.8
20260504002008 5 126 0.0 0.0 0.00 0.00 0.00 62 1007.7
20260504001534 6 126 0.0 0.0 0.00 0.00 0.00 61 1007.7
20260504001004 6 126 0.0 0.0 0.00 0.00 0.00 57 1007.6
20260504000508 6 126 0.0 0.0 0.00 0.00 0.00 54 1007.6
20260504000025 6 126 0.0 0.0 0.00 0.00 0.00 54 1007.5
20260503235506 7 126 0.0 0.0 0.00 0.00 0.00 53 1007.5
20260503235003 7 126 0.0 0.0 0.00 0.00 0.00 51 1007.4
20260503234522 7 126 0.0 0.0 0.00 0.00 0.00 51 1007.4
20260503234007 7 126 0.0 0.0 0.00 0.00 0.00 50 1007.4
20260503233510 7 126 0.0 0.0 0.00 0.00 0.00 51 1007.3
20260503233020 7 126 0.0 0.0 0.00 0.00 0.00 49 1007.3
20260503232512 8 293 0.0 0.0 0.00 0.00 0.00 48 1007.3
20260503232011 8 240 0.0 0.0 0.00 0.00 0.00 47 1007.3
20260503231513 8 262 0.0 1.6 0.00 0.00 0.00 50 1007.2
20260503231007 8 299 0.0 1.6 0.00 0.00 0.00 49 1007.2
20260503230511 8 252 0.0 1.6 0.00 0.03 0.00 49 1007.1
20260503230037 8 276 0.0 0.0 0.00 0.03 0.00 48 1007.1
20260503225504 8 178 0.0 0.0 0.00 0.03 0.00 47 1007.1
20260503225007 8 59 0.0 0.0 0.00 0.03 0.00 48 1007.1
20260503224527 8 267 0.0 0.0 0.00 0.03 0.00 48 1007.1
20260503224004 8 13 0.0 0.0 0.00 0.03 0.00 48 1007.1
20260503223511 8 239 0.0 0.0 0.00 0.03 0.00 48 1006.9
20260503223025 8 136 0.0 8.0 0.00 0.05 0.00 47 1006.9
20260503222503 8 123 0.0 8.0 0.00 0.05 0.00 47 1007.0
20260503222007 8 261 0.0 8.0 0.00 0.08 0.00 46 1006.9
20260503221504 8 256 0.0 8.0 0.00 0.10 0.00 46 1006.8
20260503221004 8 17 0.0 0.0 0.00 0.15 0.00 48 1006.8
20260503220506 8 289 0.0 17.7 0.00 0.15 0.00 46 1006.8
20260503220004 8 360 0.0 17.7 0.00 0.15 0.00 45 1006.7
20260503215503 8 304 1.6 17.7 0.00 0.15 0.00 44 1006.7
20260503215004 8 300 0.0 0.0 0.00 0.15 0.00 44 1006.6
20260503214534 9 274 0.0 1.6 0.00 0.15 0.00 45 1006.6
20260503214007 9 15 0.0 9.7 0.00 0.15 0.00 45 1006.5
20260503213504 9 286 0.0 11.3 0.00 0.15 0.00 44 1006.5
20260503213015 10 146 0.0 12.9 0.00 0.15 0.00 42 1006.3
20260503212508 10 115 0.0 12.9 0.00 0.15 0.00 45 1006.2
20260503212002 9 352 0.0 12.9 0.00 0.15 0.00 46 1006.1
20260503211511 9 263 0.0 0.0 0.00 0.15 0.00 46 1006.0
20260503211013 9 285 0.0 0.0 0.00 0.15 0.00 45 1006.1
20260503210503 9 205 0.0 0.0 0.00 0.15 0.00 45 1006.1
20260503210007 9 109 0.0 0.0 0.00 0.20 0.00 46 1006.0
20260503205506 9 252 0.0 1.6 0.00 0.23 0.00 45 1006.0
20260503205008 9 182 0.0 3.2 0.00 0.25 0.00 44 1005.9
20260503204506 9 294 0.0 3.2 0.00 0.25 0.00 46 1005.9
20260503204005 9 269 0.0 1.6 0.00 0.30 0.00 45 1005.8
20260503203506 8 309 0.0 1.6 0.00 0.30 0.00 45 1005.8
20260503203009 8 294 0.0 6.4 0.00 0.30 0.00 46 1005.9
20260503202503 8 355 0.0 6.4 0.00 0.30 0.00 45 1005.9
20260503202006 8 65 0.0 16.1 0.00 0.30 0.00 45 1005.8
20260503201520 8 37 0.0 16.1 0.00 0.30 0.00 44 1005.9
20260503201003 9 51 0.0 3.2 0.00 0.30 0.00 46 1005.8
20260503200504 9 192 0.0 1.6 0.00 0.30 0.00 47 1005.8
20260503200017 9 192 0.0 9.7 0.00 0.30 0.00 45 1005.8
20260503195508 9 180 0.0 20.9 0.00 0.30 0.00 47 1005.7
20260503195008 9 257 0.0 20.9 0.00 0.30 0.00 46 1005.8
20260503194514 9 261 0.0 16.1 0.00 0.30 0.00 47 1005.7
20260503194009 9 193 0.0 16.1 0.00 0.30 0.00 45 1005.6
20260503193506 9 229 1.6 16.1 0.00 0.30 0.00 44 1005.6
20260503193011 9 311 0.0 8.0 0.00 0.30 0.00 44 1005.5
20260503192504 9 63 0.0 12.9 0.00 0.30 0.00 42 1005.6
20260503192007 9 292 0.0 12.9 0.00 0.30 0.00 44 1005.5
20260503191515 9 259 0.0 0.0 0.00 0.30 0.00 43 1005.5
20260503191004 9 212 0.0 14.5 0.00 0.30 0.00 47 1005.6
20260503190508 9 211 0.0 14.5 0.00 0.30 0.00 45 1005.6
20260503190009 9 289 0.0 0.0 0.00 0.30 0.00 48 1005.7
20260503185503 9 84 0.0 0.0 0.00 0.30 0.00 47 1005.6
20260503185006 9 157 0.0 16.1 0.00 0.30 0.00 45 1005.6
20260503184521 9 17 0.0 16.1 0.00 0.30 0.00 46 1005.7